Tracking 29892 objects as of 21-Nov-2024
HD Live streaming from Space Station
objects crossing your sky now

NOAA 16 DEB

Track NOAA 16 DEB now!
10-day predictions


NORAD ID: 41219
Int'l Code: 2000-055DY
Perigee: 817.1 km
Apogee: 827.0 km
Inclination: 98.7 °
Period: 101.2 minutes
Semi major axis: 7193 km
RCS: Unknown
Launch date: September 21, 2000
Source: United States (US)
Launch site: AIR FORCE WESTERN TEST RANGE (AFWTR)

Note: This is SATELLITE DEBRIS
Your satellite tracking list
Your tracking list is empty




NASA's NSSDC Master Catalog

Two Line Element Set (TLE):
1 41219U 00055DY  24326.10540998  .00006008  00000-0  26802-2 0  9994
2 41219  98.6537  17.2964 0006854  34.0925 326.0692 14.23086069462360
Source of the keplerian elements: AFSPC